OpenBCM V1.13 (Linux)

Packet Radio Mailbox

DB0FHN

[JN59NK Nuernberg]

 Login: GUEST





  
I0OJJ  > KEPS     21.02.26 02:33l 311 Lines 14720 Bytes #999 (0) @ AMSAT
BID : ORB26052.1
Read: OE5RCO GUEST DH1ME DJ6UX
Subj: 2Line Orbital Elements 26052.AMSAT
Path: DB0FHN<DB0RKB<DK0WUE<K7EK<VE3CGR<CX2SA<EA2RCF<I0OJJ
Sent: 260221/0021z @:I0OJJ.ITA.EU [Rome] obcm1.13-38-g65b7
From: I0OJJ @ I0OJJ.ITA.EU (Gustavo)
To:   KEPS @ AMSAT
X-Info: This message was generated automatically


QST de W1STR

AMSAT Orbital Elements for Amateur Satellites in TLE Format
>From Orbital Analysis Office
New England Sci-Tech STEM Education Center
Natick MA February 21, 2026
To all radio amateurs


These element sets describe the orbits of various satellites 
in use by the amateur radio community. For details see:
www.amsat.org/keplerian-elements-formats/

A daily update of element sets is available at:
www.amsat.org/tle/daily-bulletin.txt
or without bulletin text:
www.amsat.org/tle/dailytle.txt


AO-07
1 07530U 74089B   26051.57117431 -.00000052  00000-0 -36441-4 0  9997
2 07530 101.9973  63.5767 0012139 355.1660 124.0699 12.53695974345906
UO-11
1 14781U 84021B   26051.42009604  .00001258  00000-0  13469-3 0  9997
2 14781  97.7919  18.4223 0006828 199.3634 160.7325 14.90436261239738
AO-27
1 22825U 93061C   26051.64523332  .00000088  00000-0  50542-4 0  9996
2 22825  98.7021 119.0394 0009502  84.2101 276.0165 14.30906868690330
FO-29
1 24278U 96046B   26051.56840734  .00000026  00000-0  60843-4 0  9992
2 24278  98.5405 276.3018 0350480  39.1490 323.4454 13.53267779457392
GO-32
1 25397U 98043D   26051.53024029  .00000063  00000-0  47438-4 0  9998
2 25397  99.0008  41.3853 0001441 147.1677 212.9590 14.24400807434729
ISS
1 25544U 98067A   26051.53885789  .00009982  00000-0  19450-3 0  9997
2 25544  51.6324 157.1302 0008583 115.7613 244.4262 15.48162254553678
NO-44
1 26931U 01043C   26051.72504296  .00000169  00000-0  94202-4 0  9995
2 26931  67.0503 185.4850 0007046 265.7928  94.2369 14.31901907273775
SO-50
1 27607U 02058C   26051.82335492  .00001409  00000-0  18427-3 0  9996
2 27607  64.5520 128.9334 0074817 283.7307  75.5479 14.82710323247206
CO-55
1 27844U 03031E   26051.56286865  .00000280  00000-0  14049-3 0  9993
2 27844  98.6780  61.5747 0009961 158.1482 202.0124 14.24250453175070
CO-57
1 27848U 03031J   26051.56354675  .00000231  00000-0  12050-3 0  9998
2 27848  98.6809  61.3819 0009504 175.8659 184.2599 14.23547963174787
RS-22
1 27939U 03042A   26051.88550852  .00001528  00000-0  24501-3 0  9995
2 27939  98.3412 232.9808 0010208 279.1655 187.5133 14.73202027198427
CO-58
1 28895U 05043F   26051.38532668  .00001671  00000-0  27274-3 0  9999
2 28895  98.2805 204.6871 0013714 212.4345 147.6020 14.72233984 84567
CO-65
1 32785U 08021C   26051.66302740  .00005624  00000-0  36829-3 0  9996
2 32785  97.8188  30.8369 0011225  69.5785 290.6647 15.08100143967625
CO-66
1 32791U 08021J   26051.50908671  .00015942  00000-0  58109-3 0  9990
2 32791  97.7506  44.2383 0004199  41.5442 318.6115 15.28262399969449
RS-30
1 32953U 08025A   26051.80736118  .00000083  00000-0  52248-3 0  9990
2 32953  82.4977  67.8304 0018921 202.3451 157.6806 12.43175665805238
SRMSAT
1 37841U 11058D   26051.00876865  .00000419  00000-0  83806-4 0  9995
2 37841  19.9728  48.7139 0011699 355.8782  30.4961 14.11540493741240
ZACUBE-1
1 39417U 13066B   26051.78870296  .00004847  00000-0  38685-3 0  9997
2 39417  97.8199  13.5307 0040637 277.9777  81.6836 15.00121306663279
Delfi-N3xt
1 39428U 13066N   26051.72996249  .00007590  00000-0  68957-3 0  9993
2 39428  97.8353 332.2979 0075169 233.2715 126.1585 14.93380040657232
GOMX-1
1 39430U 13066Q   26051.79692918  .00001412  00000-0  21876-3 0  9995
2 39430  97.6571 259.5547 0130847  91.2155 270.4045 14.69022408652820
LO-74
1 39440U 13066AA  26051.80667076  .00005147  00000-0  48682-3 0  9998
2 39440  97.8797   0.4596 0060497  54.2318 306.4505 14.92725395659620
AO-73
1 39444U 13066AE  26051.78388205  .00008385  00000-0  54763-3 0  9997
2 39444  97.8170  21.0434 0035817 238.2707 121.5028 15.07562637662112
DTUSAT-2
1 40030U 14033W   26051.40202311  .00006673  00000-0  38009-3 0  9990
2 40030  98.0830  41.8981 0006140 276.2164  83.8366 15.13171780635010
EO-80
1 40032U 14033Y   26051.40750331  .00006392  00000-0  36291-3 0  9991
2 40032  98.0718  41.2039 0006654 198.8477 161.2507 15.13303436634990
LILACSAT-2
1 40908U 15049K   26051.83369278  .00015198  00000-0  29900-3 0  9997
2 40908  97.4832  84.4794 0006132 326.9576  33.1289 15.47341926577739
Horyu-4
1 41340U 16012D   26051.52558926  .00061024  00000-0  72645-3 0  9998
2 41340  30.9911 187.7675 0000830 292.9864  67.0700 15.59785617552421
Lapan A3
1 41603U 16040E   26051.85006214  .00003586  00000-0  11746-3 0  9999
2 41603  97.1472  51.9060 0012433  75.7394 284.5228 15.32215361536997
CAS-2T
1 41847U 16066G   26051.73546307  .00001373  00000-0  20017-3 0  9999
2 41847  98.3919 128.7703 0343799 122.7452 240.7370 14.44407376487980
TechnoSat
1 42829U 17042E   26051.39838802  .00004391  00000-0  31994-3 0  9990
2 42829  97.4111 213.6606 0018650 131.4444 228.8388 15.04105178469140
AO-91
1 43017U 17073E   26051.57222237  .00009629  00000-0  43819-3 0  9991
2 43017  97.4881 281.2323 0157297  11.1839 349.2820 15.10453173447776
S-Net D
1 43186U 18014G   26051.70559818  .00005034  00000-0  26998-3 0  9992
2 43186  97.5453 317.2720 0010193  66.4370 293.7931 15.15378672441119
S-Net B
1 43187U 18014H   26051.71484877  .00004852  00000-0  26053-3 0  9995
2 43187  97.5459 317.2642 0010816  62.2243 298.0085 15.15351498441119
S-Net A
1 43188U 18014J   26051.70501968  .00004994  00000-0  26777-3 0  9996
2 43188  97.5468 317.4422 0010688  62.8403 297.3918 15.15384504441110
S-Net C
1 43189U 18014K   26051.71811356  .00004982  00000-0  26737-3 0  9996
2 43189  97.5485 317.5117 0012027  56.0357 304.2017 15.15344086439660
Ten-Koh
1 43677U 18084G   26051.52533732  .00002953  00000-0  22818-3 0  9995
2 43677  98.0775 238.9936 0010168 147.2932 212.8923 15.02334953398641
PO-101
1 43678U 18084H   26051.84414854  .00002386  00000-0  19759-3 0  9994
2 43678  98.1040 243.1894 0010081 179.0708 181.0535 14.99867482398770
QO-100
1 43700U 18090A   26051.75156409  .00000150  00000-0  00000+0 0  9998
2 43700   0.0173 171.6747 0002288 193.8202  81.5324  1.00269144 26508
MinXSS-2
1 43758U 18099A   26051.75390309  .00026327  00000-0  67970-3 0  9996
2 43758  97.4660 125.2519 0007646 328.8425  31.2366 15.39097427396175
AO-95
1 43770U 18099N   26051.70493038  .00010729  00000-0  44622-3 0  9996
2 43770  97.4544 112.5244 0009909  45.9506 314.2546 15.23914728395465
SNUSat 2
1 43782U 18099AA  26051.08948738  .00008039  00000-0  37800-3 0  9993
2 43782  97.4227 106.3397 0010212 354.1109   6.0004 15.19796667395234
SnugLite
1 43784U 18099AC  26051.67367482  .00010667  00000-0  43878-3 0  9993
2 43784  97.4040 107.2355 0002522  12.0040 348.1257 15.24327347395558
ITASat 1
1 43786U 18099AE  26051.69632765  .00006941  00000-0  35001-3 0  9995
2 43786  97.4200 105.5697 0013870  44.4073 315.8270 15.17368241395232
EAGLET 1
1 43790U 18099AJ  26051.67875999  .00004114  00000-0  24349-3 0  9999
2 43790  97.4406 104.4149 0012041  35.5825 324.6206 15.11921590394726
ESEO
1 43792U 18099AL  26051.68834197  .00000888  00000-0  68694-4 0  9993
2 43792  97.4138  93.9992 0012687  19.0938 341.0761 15.03831964394293
JO-97
1 43803U 18099AX  26051.41950425  .00013130  00000-0  46005-3 0  9995
2 43803  97.4289 114.1018 0005124 335.4005  24.6990 15.29590275395751
Suomi 100
1 43804U 18099AY  26051.69626860  .00011628  00000-0  46146-3 0  9995
2 43804  97.4351 112.6736 0009622 338.2125  21.8702 15.25471525395643
ISAT
1 43879U 18111D   26051.74429306  .00048161  00000-0  89022-3 0  9996
2 43879  97.5902 339.6035 0006991  36.5319 323.6406 15.48892733393050
UWE-4
1 43880U 18111E   26051.77368881  .00026119  00000-0  68155-3 0  9994
2 43880  97.5858 335.4661 0010674  36.9331 323.2646 15.38744128392832
Sparrow
1 43881U 18111F   26051.34797767  .00050159  00000-0  82621-3 0  9992
2 43881  97.6116 343.4241 0007470  67.2071 292.9969 15.52146254393138
Prox-1
1 44339U 19036A   26051.53022460  .00014269  00000-0  15064-2 0  9998
2 44339  23.9945 171.7245 0007399 119.3989 240.7248 14.87465375356069
Taurus 1
1 44530U 19059C   26051.88887737  .00005714  00000-0  95025-3 0  9991
2 44530  98.6283 209.7049 0008102 313.4245  46.6284 14.70494627341549
TO-108
1 44881U 19093C   26051.85526744  .00000613  00000-0  75589-4 0  9990
2 44881  97.7647 126.8892 0014972 107.4518 252.8336 14.86299319334137
FloripaSat 1
1 44885U 19093G   26051.80199413  .00005549  00000-0  42263-3 0  9993
2 44885  97.7915 145.3218 0012141 104.1293 256.1281 15.02426826335161
RS-44
1 44909U 19096E   26051.51702691 -.00000001  00000-0 -55531-4 0  9992
2 44909  82.5175  57.2302 0218542  57.3347 304.8630 12.79747165287422
SALSAT
1 46495U 20068K   26051.51537826  .00007775  00000-0  28899-3 0  9990
2 46495  97.8845  47.6555 0010182   3.4976 356.6331 15.27797981297533
CSS (TIANHE-1)
1 48274U 21035A   26051.75343516  .00023128  00000-0  28184-3 0  9996
2 48274  41.4672 311.1545 0004809 157.2920 202.8132 15.59939146274966
CUTE
1 49263U 21088D   26051.74452398  .00041435  00000-0  42071-3 0  9993
2 49263  97.4247 143.0212 0003580  23.6022 336.5400 15.65096009244229
TeikyoSat 4
1 49396U 21102B   26051.63422508  .00002352  00000-0  15233-3 0  9990
2 49396  97.3820  85.5977 0011511 341.7928  18.2888 15.09028236235142
Z-Sat
1 49399U 21102E   26051.83605696  .00004475  00000-0  22762-3 0  9999
2 49399  97.3486  90.6755 0015510 296.1297  63.8341 15.17236253235799
KOSEN 1
1 49402U 21102H   26051.68206427  .00007211  00000-0  29127-3 0  9999
2 49402  97.3360  96.1453 0012618 257.6222 102.3604 15.24986813236252
HO-113
1 50466U 21131B   26051.84203814  .00000660  00000-0  21812-3 0  9992
2 50466  98.4980 144.8932 0005267  89.5613 270.6179 14.41227245218357
SNUGLITE 2
1 52899U 22065F   26051.38116838  .00001012  00000-0  20190-3 0  9999
2 52899  98.1997 196.5583 0008029  38.3192 321.8579 14.64076454193908
